| time (UTC) | temp F | wind direction | speed MPH | gust MPH | rain 1hr in | rain 24hr in | rain mn in | humidity % | barometer mb |
| 20260507083030 | 66 | 78 | 11.0 | 15.0 | 0.00 | 0.00 | 0.00 | 85 | 1014.6 |
| 20260507081540 | 66 | 67 | 11.0 | 16.0 | 0.00 | 0.00 | 0.00 | 85 | 1014.7 |
| 20260507080027 | 66 | 65 | 9.0 | 14.0 | 0.00 | 0.00 | 0.00 | 85 | 1015.2 |
| 20260507074545 | 66 | 81 | 7.0 | 14.0 | 0.00 | 0.00 | 0.00 | 86 | 1015.5 |
| 20260507073031 | 66 | 94 | 9.0 | 11.0 | 0.00 | 0.00 | 0.00 | 86 | 1015.4 |
| 20260507071529 | 66 | 80 | 8.0 | 11.0 | 0.00 | 0.00 | 0.00 | 86 | 1015.4 |
| 20260507070032 | 66 | 97 | 7.0 | 10.0 | 0.00 | 0.00 | 0.00 | 86 | 1015.8 |
| 20260507064531 | 67 | 102 | 3.0 | 8.0 | 0.00 | 0.00 | 0.00 | 85 | 1015.6 |
| 20260507063030 | 67 | 91 | 3.0 | 8.0 | 0.00 | 0.00 | 0.00 | 84 | 1015.5 |
| 20260507061534 | 68 | 110 | 4.0 | 9.0 | 0.00 | 0.00 | 0.00 | 83 | 1015.7 |
| 20260507060032 | 68 | 109 | 2.0 | 10.0 | 0.00 | 0.00 | 0.00 | 83 | 1015.2 |
| 20260507054528 | 68 | 71 | 2.0 | 7.0 | 0.00 | 0.00 | 0.00 | 83 | 1015.2 |
| 20260507053032 | 69 | 53 | 2.0 | 6.0 | 0.00 | 0.00 | 0.00 | 83 | 1015.2 |
| 20260507051532 | 69 | 42 | 4.0 | 7.0 | 0.00 | 0.00 | 0.00 | 82 | 1014.7 |
| 20260507050030 | 69 | 37 | 4.0 | 8.0 | 0.00 | 0.00 | 0.00 | 83 | 1014.9 |
| 20260507044535 | 69 | 47 | 4.0 | 9.0 | 0.00 | 0.00 | 0.00 | 83 | 1014.2 |
| 20260507043035 | 70 | 76 | 6.0 | 13.0 | 0.00 | 0.00 | 0.00 | 82 | 1014.0 |
| 20260507041531 | 71 | 49 | 9.0 | 14.0 | 0.00 | 0.00 | 0.00 | 81 | 1013.3 |
| 20260507040039 | 71 | 52 | 11.0 | 15.0 | 0.00 | 0.00 | 0.00 | 80 | 1013.3 |
| 20260507034533 | 72 | 75 | 9.0 | 21.0 | 0.00 | 0.00 | 0.00 | 80 | 1013.2 |
| 20260507033034 | 72 | 45 | 7.0 | 12.0 | 0.00 | 0.00 | 0.00 | 82 | 1013.9 |
| 20260507031539 | 72 | 63 | 8.0 | 14.0 | 0.00 | 0.00 | 0.00 | 81 | 1012.9 |
| 20260507030047 | 73 | 80 | 8.0 | 12.0 | 0.00 | 0.00 | 0.00 | 79 | 1013.0 |
| 20260507024533 | 74 | 53 | 8.0 | 13.0 | 0.00 | 0.00 | 0.00 | 77 | 1012.6 |
| 20260507023031 | 74 | 45 | 9.0 | 13.0 | 0.00 | 0.00 | 0.00 | 78 | 1012.4 |
| 20260507021536 | 74 | 36 | 8.0 | 12.0 | 0.00 | 0.00 | 0.00 | 78 | 1012.2 |
| 20260507020035 | 74 | 28 | 7.0 | 11.0 | 0.00 | 0.00 | 0.00 | 78 | 1012.3 |
| 20260507014548 | 75 | 40 | 6.0 | 12.0 | 0.00 | 0.00 | 0.00 | 77 | 1012.4 |
| 20260507013032 | 76 | 73 | 7.0 | 12.0 | 0.00 | 0.00 | 0.00 | 77 | 1012.2 |
| 20260507011535 | 76 | 43 | 8.0 | 12.0 | 0.00 | 0.00 | 0.00 | 76 | 1011.8 |
| 20260507010038 | 77 | 45 | 6.0 | 13.0 | 0.00 | 0.00 | 0.00 | 75 | 1011.3 |
| 20260507004533 | 77 | 47 | 9.0 | 12.0 | 0.00 | 0.00 | 0.00 | 75 | 1011.4 |
| 20260507003038 | 78 | 51 | 7.0 | 12.0 | 0.00 | 0.00 | 0.00 | 74 | 1011.2 |
| 20260507001535 | 79 | 32 | 8.0 | 14.0 | 0.00 | 0.00 | 0.00 | 73 | 1011.1 |
| 20260507000037 | 80 | 53 | 9.0 | 13.0 | 0.00 | 0.00 | 0.00 | 72 | 1011.2 |
| 20260506234534 | 81 | 37 | 13.0 | 20.0 | 0.00 | 0.00 | 0.00 | 71 | 1011.3 |
| 20260506233039 | 81 | 47 | 6.0 | 11.0 | 0.00 | 0.00 | 0.00 | 75 | 1010.8 |
| 20260506231535 | 81 | 46 | 9.0 | 13.0 | 0.00 | 0.00 | 0.00 | 74 | 1010.7 |
| 20260506230034 | 81 | 44 | 6.0 | 11.0 | 0.00 | 0.00 | 0.00 | 74 | 1010.8 |
| 20260506224535 | 81 | 51 | 6.0 | 9.0 | 0.00 | 0.00 | 0.00 | 76 | 1010.6 |
| 20260506223032 | 80 | 46 | 6.0 | 10.0 | 0.00 | 0.00 | 0.00 | 78 | 1010.6 |
| 20260506221532 | 80 | 53 | 7.0 | 10.0 | 0.00 | 0.00 | 0.00 | 77 | 1010.4 |
| 20260506220038 | 80 | 62 | 7.0 | 12.0 | 0.00 | 0.00 | 0.00 | 78 | 1010.4 |
| 20260506214536 | 81 | 61 | 9.0 | 12.0 | 0.00 | 0.00 | 0.00 | 77 | 1010.8 |
| 20260506213033 | 81 | 56 | 8.0 | 13.0 | 0.00 | 0.00 | 0.00 | 78 | 1010.8 |
| 20260506211537 | 81 | 59 | 7.0 | 12.0 | 0.00 | 0.00 | 0.00 | 79 | 1011.0 |
| 20260506210039 | 80 | 65 | 9.0 | 13.0 | 0.00 | 0.00 | 0.00 | 80 | 1010.9 |
| 20260506204543 | 80 | 65 | 9.0 | 15.0 | 0.00 | 0.00 | 0.00 | 80 | 1011.0 |
| 20260506203041 | 81 | 71 | 11.0 | 15.0 | 0.00 | 0.00 | 0.00 | 80 | 1011.3 |
| 20260506201544 | 81 | 43 | 7.0 | 15.0 | 0.00 | 0.00 | 0.00 | 80 | 1011.3 |
| 20260506200040 | 82 | 62 | 9.0 | 17.0 | 0.00 | 0.00 | 0.00 | 81 | 1011.5 |
| 20260506194550 | 80 | 59 | 12.0 | 16.0 | 0.00 | 0.00 | 0.00 | 83 | 1011.7 |
| 20260506193041 | 79 | 63 | 12.0 | 16.0 | 0.00 | 0.00 | 0.00 | 84 | 1011.7 |
| 20260506191548 | 79 | 62 | 9.0 | 16.0 | 0.00 | 0.00 | 0.00 | 85 | 1012.0 |
| 20260506190040 | 79 | 51 | 9.0 | 13.0 | 0.00 | 0.00 | 0.00 | 85 | 1012.3 |
| 20260506184548 | 80 | 87 | 7.0 | 12.0 | 0.00 | 0.00 | 0.00 | 84 | 1012.3 |
| 20260506183049 | 78 | 70 | 8.0 | 12.0 | 0.00 | 0.00 | 0.00 | 88 | 1012.3 |
| 20260506181548 | 78 | 54 | 7.0 | 12.0 | 0.00 | 0.00 | 0.00 | 87 | 1012.5 |
| 20260506180104 | 78 | 65 | 7.0 | 9.0 | 0.00 | 0.00 | 0.00 | 89 | 1012.4 |
| 20260506174546 | 76 | 68 | 4.0 | 8.0 | 0.00 | 0.00 | 0.00 | 91 | 1012.4 |
| 20260506173039 | 76 | 55 | 4.0 | 8.0 | 0.00 | 0.00 | 0.00 | 91 | 1012.5 |
| 20260506171549 | 76 | 80 | 6.0 | 8.0 | 0.00 | 0.00 | 0.00 | 91 | 1012.2 |
| 20260506170104 | 76 | 46 | 3.0 | 6.0 | 0.00 | 0.00 | 0.00 | 89 | 1012.3 |
| 20260506164545 | 76 | 46 | 3.0 | 8.0 | 0.00 | 0.00 | 0.00 | 90 | 1012.1 |
| 20260506163111 | 76 | 85 | 6.0 | 9.0 | 0.00 | 0.00 | 0.00 | 90 | 1012.1 |
| 20260506161549 | 76 | 35 | 4.0 | 7.0 | 0.00 | 0.00 | 0.00 | 89 | 1012.0 |
| 20260506160048 | 76 | 64 | 4.0 | 8.0 | 0.00 | 0.00 | 0.00 | 91 | 1011.7 |
| 20260506154609 | 75 | 81 | 4.0 | 8.0 | 0.00 | 0.00 | 0.00 | 93 | 1011.5 |
| 20260506153107 | 75 | 77 | 4.0 | 5.0 | 0.00 | 0.00 | 0.00 | 93 | 1011.4 |
| 20260506151550 | 74 | 77 | 3.0 | 6.0 | 0.00 | 0.00 | 0.00 | 94 | 1011.3 |
| 20260506150053 | 74 | 105 | 3.0 | 4.0 | 0.00 | 0.00 | 0.00 | 93 | 1011.1 |
| 20260506144555 | 74 | 142 | 2.0 | 6.0 | 0.00 | 0.00 | 0.00 | 92 | 1011.1 |
| 20260506143101 | 75 | 95 | 3.0 | 7.0 | 0.00 | 0.00 | 0.00 | 91 | 1011.1 |
| 20260506141555 | 75 | 105 | 2.0 | 5.0 | 0.00 | 0.00 | 0.00 | 91 | 1010.9 |
| 20260506140059 | 74 | 145 | 1.0 | 4.0 | 0.00 | 0.00 | 0.00 | 92 | 1010.6 |
| 20260506134601 | 74 | 145 | 1.0 | 4.0 | 0.00 | 0.00 | 0.00 | 92 | 1010.6 |
| 20260506133057 | 74 | 132 | 3.0 | 8.0 | 0.00 | 0.00 | 0.00 | 93 | 1010.3 |
| 20260506131551 | 74 | 127 | 4.0 | 7.0 | 0.00 | 0.00 | 0.00 | 93 | 1010.1 |
| 20260506130057 | 74 | 135 | 5.0 | 9.0 | 0.00 | 0.00 | 0.00 | 93 | 1010.1 |
| 20260506124553 | 73 | 111 | 6.0 | 9.0 | 0.00 | 0.00 | 0.00 | 93 | 1009.9 |
| 20260506123027 | 73 | 90 | 5.0 | 8.0 | 0.00 | 0.00 | 0.00 | 93 | 1009.8 |
| 20260506121530 | 74 | 114 | 7.0 | 11.0 | 0.00 | 0.00 | 0.00 | 93 | 1009.6 |
| 20260506120027 | 74 | 111 | 7.0 | 12.0 | 0.00 | 0.00 | 0.00 | 92 | 1009.4 |
| 20260506114533 | 74 | 123 | 7.0 | 11.0 | 0.00 | 0.00 | 0.00 | 92 | 1009.3 |
| 20260506113028 | 74 | 129 | 9.0 | 12.0 | 0.00 | 0.00 | 0.00 | 91 | 1009.2 |
| 20260506111525 | 74 | 97 | 9.0 | 13.0 | 0.00 | 0.00 | 0.00 | 91 | 1009.4 |
| 20260506110031 | 74 | 126 | 9.0 | 15.0 | 0.00 | 0.00 | 0.00 | 90 | 1009.3 |
| 20260506104525 | 74 | 113 | 10.0 | 15.0 | 0.00 | 0.00 | 0.00 | 91 | 1009.3 |
| 20260506103029 | 74 | 111 | 7.0 | 14.0 | 0.00 | 0.00 | 0.00 | 91 | 1009.2 |
| 20260506101529 | 75 | 96 | 9.0 | 13.0 | 0.00 | 0.00 | 0.00 | 91 | 1009.1 |
| 20260506100025 | 75 | 109 | 7.0 | 13.0 | 0.00 | 0.00 | 0.00 | 90 | 1009.1 |
| 20260506094527 | 75 | 114 | 9.0 | 13.0 | 0.00 | 0.00 | 0.00 | 90 | 1008.9 |
| 20260506093030 | 75 | 100 | 11.0 | 14.0 | 0.00 | 0.00 | 0.00 | 90 | 1008.9 |
| 20260506091528 | 75 | 94 | 11.0 | 16.0 | 0.00 | 0.00 | 0.00 | 90 | 1008.9 |
| 20260506090027 | 75 | 99 | 12.0 | 17.0 | 0.00 | 0.00 | 0.00 | 90 | 1008.6 |
| 20260506084526 | 75 | 80 | 12.0 | 17.0 | 0.00 | 0.00 | 0.00 | 90 | 1008.7 |